This demonstration page uses our WeatherBlox Daily Observations layout. Learn more.

Left ArrowRight Arrow

Hourly Observations for October 21, 2018

Temp ( °F °C ) Dew Point ( °F °C ) Humidity (%) Winds ( mph kmh ) Pressure ( in mb ) Visibility ( mi km ) Precip ( " mm )
12:53 am 00:53 Clear 41 5 25 -3.9 53 53 SSE 8 13 30.34 1028 10 16 0.00 0.00
1:53 am 01:53 Clear 40 4.4 25 -3.9 55 55 S 8 13 30.33 1027 10 16 0.00 0.00
2:53 am 02:53 Clear 40 4.4 26 -3.3 58 58 S 9 15 30.32 1027 10 16 0.00 0.00
3:53 am 03:53 Clear 38 3.3 27 -2.8 65 65 S 8 13 30.31 1026 10 16 0.00 0.00
4:53 am 04:53 Clear 38 3.3 28 -2.2 68 68 S 8 13 30.29 1026 10 16 0.00 0.00
5:53 am 05:53 Clear 38 3.3 28 -2.2 68 68 S 9 15 30.28 1025 10 16 0.00 0.00
6:53 am 06:53 Clear 39 3.9 29 -1.7 67 67 S 12 19 30.27 1025 10 16 0.00 0.00
7:53 am 07:53 Sunny 39 3.9 30 -1.1 70 70 S 10 17 30.25 1024 10 16 0.00 0.00
8:53 am 08:53 Sunny 43 6.1 31 -0.6 63 63 S 14 22 30.23 1024 10 16 0.00 0.00
9:53 am 09:53 Sunny 49 9.4 32 0 52 52 SSW 17 28 30.21 1023 10 16 0.00 0.00
10:53 am 10:53 Sunny 54 12.2 36 2.2 51 51 SSW 14 22 30.18 1022 10 16 0.00 0.00
11:53 am 11:53 Sunny 59 15 38 3.3 46 46 SSW 16 26 30.15 1021 10 16 0.00 0.00
12:53 pm 12:53 Sunny 65 18.3 40 4.4 40 40 SSW 13 20 30.11 1020 10 16 0.00 0.00
1:53 pm 13:53 Sunny 70 21.1 41 5 35 35 SSW 18 30 30.06 1018 10 16 0.00 0.00
2:53 pm 14:53 Sunny 73 22.8 42 5.6 33 33 SSW 16 26 30.03 1017 10 16 0.00 0.00
3:53 pm 15:53 Sunny 75 23.9 42 5.6 31 31 SW 16 26 30.01 1016 10 16 0.00 0.00
4:53 pm 16:53 Sunny 74 23.3 41 5 31 31 SSW 16 26 29.99 1016 10 16 0.00 0.00
5:53 pm 17:53 Sunny 73 22.8 42 5.6 33 33 SSW 12 19 29.98 1015 10 16 0.00 0.00
6:53 pm 18:53 Clear 67 19.4 42 5.6 41 41 S 5 7 30.00 1016 10 16 0.00 0.00
7:53 pm 19:53 Clear 62 16.7 42 5.6 48 48 S 7 11 30.02 1017 10 16 0.00 0.00
8:53 pm 20:53 Clear 58 14.4 41 5 53 53 S 6 9 30.02 1017 10 16 0.00 0.00
9:53 pm 21:53 Clear 56 13.3 40 4.4 55 55 S 5 7 30.02 1017 10 16 0.00 0.00
10:53 pm 22:53 Clear 55 12.8 40 4.4 57 57 S 7 11 30.01 1016 10 16 0.00 0.00
11:53 pm 23:53 Clear 54 12.2 38 3.3 55 55 S 7 11 30.01 1016 10 16 0.00 0.00

Powered by AerisWeather